Date String (YYYY-MM-DD hh:mm:ss) UTC,Instrument flags,Ambient pressure (hPa),Sample flow (lpm),Bypass flow (lpm),Sample temperature (°C),Ambient temperature (°C),ASC tube jacket temperature (°C),LED temperature (°C),Box temperature (°C),Sample RH (%),Span deviation,Mass concentration (μg/m³),Mass concentration (μg/m³),Mass concentration (μg/m³)
DateTimeUTC,F1_M11,P_M11,Q1_M11,Q2_M11,T1_M11,T2_M11,T3_M11,T4_M11,T5_M11,U1_M11,ZSPAN_M11,X0_M11,X2_M11,X1_M11
2021-09-11 19:00:00,,0828.4,5.00,0.00,28.9,25.9,00.0,38.0,30.4,14.2,0001.6,0015.99,0008.24,0007.21
2021-09-11 19:01:00,,0828.3,5.00,0.00,28.9,26.3,00.0,38.0,30.5,14.2,0001.6,0016.39,0008.20,0007.18
2021-09-11 19:02:00,,0828.3,4.99,0.00,28.9,26.7,00.0,38.0,30.6,15.9,0001.5,0016.49,0008.21,0007.19
2021-09-11 19:03:00,,0828.4,5.00,0.00,28.9,27.1,00.0,38.0,30.7,16.6,0001.8,0016.05,0008.32,0007.24
2021-09-11 19:04:00,,0828.3,5.01,0.00,29.0,27.5,00.0,38.0,30.8,16.7,0001.6,0015.65,0008.41,0007.29
2021-09-11 19:05:00,,0828.3,5.00,0.00,29.1,27.7,00.0,38.0,30.9,16.7,0001.9,0015.07,0008.51,0007.38
2021-09-11 19:06:00,,0828.3,5.00,0.00,29.0,26.6,00.0,38.0,30.6,16.6,0001.8,0014.88,0008.61,0007.48
2021-09-11 19:07:00,,0828.3,5.00,0.00,28.9,25.8,00.0,38.0,30.3,16.7,0002.0,0014.99,0008.73,0007.60
2021-09-11 19:08:00,,0828.3,5.00,0.00,28.9,26.3,00.0,38.0,30.5,17.1,0002.0,0015.42,0008.83,0007.70
2021-09-11 19:09:00,,0828.2,4.98,0.00,28.9,26.7,00.0,37.9,30.6,16.9,0002.0,0015.35,0008.96,0007.83
2021-09-11 19:10:00,,0828.2,5.00,0.00,28.9,27.1,00.0,37.9,30.7,16.7,0001.8,0015.05,0009.04,0007.92
2021-09-11 19:11:00,,0828.2,5.00,0.00,29.0,27.5,00.0,37.9,30.8,16.6,0001.7,0015.62,0009.13,0008.01
2021-09-11 19:12:00,,0828.2,5.00,0.00,29.0,27.8,00.0,38.0,30.9,16.6,0002.1,0015.45,0009.26,0008.10
2021-09-11 19:13:00,,0828.3,5.00,0.00,29.1,27.4,00.0,38.0,30.8,16.3,0002.0,0015.08,0009.31,0008.14
2021-09-11 19:14:00,,0828.1,5.00,0.00,29.0,26.0,00.0,38.0,30.4,16.6,0001.9,0015.12,0009.30,0008.16
2021-09-11 19:15:00,,0828.1,5.00,0.00,28.9,26.1,00.0,38.0,30.4,16.4,0001.8,0015.06,0009.27,0008.16
2021-09-11 19:16:00,,0828.2,5.01,0.00,28.9,26.6,00.0,37.9,30.6,16.3,0001.9,0015.06,0009.28,0008.13
2021-09-11 19:17:00,,0828.3,4.99,0.00,28.9,27.0,00.0,37.9,30.7,16.4,0001.9,0015.05,0009.24,0008.12
2021-09-11 19:18:00,,0828.2,4.99,0.00,29.0,27.3,00.0,37.9,30.8,16.4,0001.8,0015.69,0009.19,0008.12
2021-09-11 19:19:00,,0828.1,5.02,0.00,29.0,27.5,00.0,38.0,30.8,16.4,0001.7,0015.55,0009.18,0008.10
2021-09-11 19:20:00,,0828.0,5.00,0.00,28.9,26.3,00.0,37.9,30.5,16.4,0001.8,0015.74,0009.14,0008.07
2021-09-11 19:21:00,,0827.8,4.99,0.00,28.8,25.7,00.0,37.9,30.3,16.5,0001.8,0015.95,0009.12,0008.05
2021-09-11 19:22:00,,0827.7,5.00,0.00,28.8,26.2,00.0,37.9,30.4,16.7,0001.8,0016.83,0009.14,0008.02
2021-09-11 19:23:00,,0827.7,4.99,0.00,28.8,26.6,00.0,37.9,30.5,17.1,0001.5,0017.11,0009.12,0008.00
2021-09-11 19:24:00,,0827.7,5.00,0.00,28.9,27.0,00.0,37.9,30.6,16.8,0001.7,0017.43,0009.09,0007.98
2021-09-11 19:25:00,,0827.7,5.01,0.00,28.9,27.4,00.0,37.9,30.8,17.3,0001.9,0017.67,0009.09,0007.98
2021-09-11 19:26:00,,0827.7,5.02,0.00,29.0,27.7,00.0,37.9,30.9,17.6,0001.8,0018.00,0009.09,0007.99
2021-09-11 19:27:00,,0827.9,4.99,0.00,29.0,27.1,00.0,37.9,30.7,17.7,0001.4,0018.42,0009.14,0008.01
2021-09-11 19:28:00,,0828.0,5.00,0.00,28.9,25.9,00.0,37.9,30.4,17.4,0001.2,0019.62,0009.21,0008.02
2021-09-11 19:29:00,,0828.1,5.00,0.00,28.8,26.1,00.0,37.9,30.4,17.2,0001.0,0018.92,0009.24,0008.03
2021-09-11 19:30:00,,0828.1,5.00,0.00,28.8,26.5,00.0,37.9,30.5,17.0,0000.8,0018.98,0009.26,0008.04
2021-09-11 19:31:00,,0828.0,5.00,0.00,28.9,26.9,00.0,37.9,30.6,17.0,0000.3,0019.61,0009.29,0008.06
2021-09-11 19:32:00,,0828.0,4.99,0.00,28.9,27.3,00.0,37.9,30.8,17.3,0000.2,0019.73,0009.32,0008.08
2021-09-11 19:33:00,,0828.0,5.01,0.00,29.0,27.6,00.0,37.9,30.9,17.3,0000.4,0019.00,0009.32,0008.10
2021-09-11 19:34:00,,0828.0,4.99,0.00,29.0,26.9,00.0,37.9,30.6,17.1,0000.1,0019.36,0009.36,0008.11
2021-09-11 19:35:00,,0828.0,5.00,0.00,28.8,25.7,00.0,37.9,30.2,17.1,0000.0,0019.42,0009.41,0008.11
2021-09-11 19:36:00,,0828.0,5.00,0.00,28.8,26.0,00.0,37.9,30.3,16.9,-000.0,0019.59,0009.46,0008.10
2021-09-11 19:37:00,,0827.9,5.01,0.00,28.8,26.4,00.0,37.9,30.4,16.5,0000.3,0019.78,0009.44,0008.09
2021-09-11 19:38:00,,0827.9,4.99,0.00,28.8,26.8,00.0,37.9,30.6,16.9,0000.6,0021.27,0009.37,0008.09
2021-09-11 19:39:00,,0827.9,5.01,0.00,28.9,27.3,00.0,37.9,30.7,16.6,0000.9,0020.38,0009.29,0008.08
2021-09-11 19:40:00,,0828.0,5.00,0.00,28.9,27.6,00.0,37.9,30.9,16.6,0001.1,0020.64,0009.30,0008.07
2021-09-11 19:41:00,,0827.9,5.00,0.00,29.0,27.5,00.0,37.9,30.8,17.4,0001.4,0020.51,0009.29,0008.06
2021-09-11 19:42:00,,0827.9,5.00,0.00,28.9,26.1,00.0,37.9,30.4,17.7,0002.2,0019.65,0009.29,0008.07
2021-09-11 19:43:00,,0827.9,5.00,0.00,28.8,25.7,00.0,37.9,30.3,16.9,0002.2,0019.39,0009.31,0008.08
2021-09-11 19:44:00,,0827.9,5.01,0.00,28.8,26.2,00.0,37.9,30.4,17.3,0002.3,0019.02,0009.30,0008.08
2021-09-11 19:45:00,,0827.8,5.00,0.00,28.8,26.6,00.0,37.9,30.5,16.7,0002.4,0017.98,0009.26,0008.06
2021-09-11 19:46:00,,0827.8,4.98,0.00,28.8,27.1,00.0,37.8,30.7,16.6,0002.3,0018.44,0009.27,0008.07
2021-09-11 19:47:00,,0827.7,5.00,0.00,28.9,27.4,00.0,37.9,30.8,16.1,0002.0,0018.55,0009.21,0008.06
2021-09-11 19:48:00,,0827.7,5.00,0.00,29.0,27.8,00.0,37.9,30.9,16.2,0001.9,0018.23,0009.18,0008.05
2021-09-11 19:49:00,,0827.7,4.99,0.00,29.0,27.7,00.0,37.9,30.9,16.5,0001.9,0016.61,0009.17,0008.04
2021-09-11 19:50:00,,0827.7,5.01,0.00,29.0,26.2,00.0,37.9,30.5,16.6,0001.7,0016.67,0009.18,0008.04
2021-09-11 19:51:00,,0827.7,5.00,0.00,28.8,25.8,00.0,37.9,30.3,16.6,0002.0,0017.69,0009.18,0008.04
2021-09-11 19:52:00,,0827.7,4.99,0.00,28.8,26.2,00.0,37.9,30.5,17.3,0002.2,0017.96,0009.18,0008.05
2021-09-11 19:53:00,,0827.7,5.00,0.00,28.8,26.7,00.0,37.9,30.6,17.6,0002.0,0018.77,0009.22,0008.04
2021-09-11 19:54:00,,0827.7,5.00,0.00,28.9,27.1,00.0,37.9,30.7,17.5,0002.1,0019.27,0009.25,0008.03
2021-09-11 19:55:00,,0827.7,5.00,0.00,28.9,27.4,00.0,37.9,30.8,17.0,0002.2,0019.58,0009.27,0008.05
2021-09-11 19:56:00,,0827.7,5.02,0.00,29.0,27.7,00.0,37.9,30.9,16.5,0002.0,0020.25,0009.34,0008.08
2021-09-11 19:57:00,,0827.7,4.98,0.00,29.0,26.7,00.0,37.9,30.6,16.7,0002.0,0019.89,0009.33,0008.09
2021-09-11 19:58:00,,0827.7,5.01,0.00,28.8,25.6,00.0,37.9,30.2,17.0,0002.1,0019.78,0009.40,0008.12
2021-09-11 19:59:00,,0827.7,5.00,0.00,28.8,25.9,00.0,37.9,30.3,16.2,0002.1,0020.50,0009.49,0008.16
